STARLINK-1160 (45082 NORAD) Tracking and Keplerian Element Data

This shows tracking and keplerian element data for the satellite.

Feedback or suggestion? Click here.




ElementValue
Catalog45082
NameSTARLINK-1160
Epoch Orbit325
Epoch Day47.91667824
Epoch Year2020
RAAN144.3518
Inclination52.9974
Eccentricity0.0001339
Argument of Perigee52.5071
Mean Anonmoly212.6449
Mean Motion15.73220969
Decay Rate-0.00041246
L11 45082U 20006AQ 20047.91667824 -.00041246 00000-0 -29056-3 0 9997
L22 45082 52.9974 144.3518 0001339 52.5071 212.6449 15.73220969 3251

Live tracking and technical data element details for STARLINK-1160 (NORAD 45082). STARLINK-1160 can be tracked NOW for your location showing map with azimuth and elevation plus other details from your city location.

Track the satellite on the map from your city or location and see movement details for azimuth, elevation, latitude, longitude, range, height, and movement on the map or in text.







IsCatalogInMostPopularTable: catalog: 45082, numindb: -1

Insert: records affected: 1


GetName: 45082 STARLINK-1160

Hit Count: inserted at: Tue, 18 Feb 2020 01:09:06 GMT